Regional Weather Roundup
Issued by NWS Green Bay, WI

Home | Current Version | Previous Version | Text Only | Print | Product List | Glossary On
Versions: 1 2 3 4 5 6 7 8 9 10 11 12 13 14 15 16 17 18 19 20 21 22 23 24 25 26 27 28 29 30 31 32 33 34 35 36 37 38 39 40 41 42 43 44 45 46 47 48 49 50
000
ASUS43 KGRB 180310
RWRGRB

NORTH-CENTRAL AND NORTHEAST WISCONSIN REGIONAL WEATHER ROUNDUP
NATIONAL WEATHER SERVICE GREEN BAY WI
1000 PM CDT THU APR 17 2014

WIZ005-009-010>012-018-019-180400-
NORTH CENTRAL WISCONSIN

CITY           SKY/WX    TMP DP  RH WIND       PRES   REMARKS
IRONWOOD       CLOUDY    32  25  74 W6        30.25S
MANITOWISH WTR CLOUDY    31  28  90 CALM      30.26R
ARBOR VITAE    CLOUDY    33  29  86 CALM      30.26S
EAGLE RIVER    CLOUDY    32  25  74 NW7       30.25S
LAND O LAKES   CLOUDY    32  28  84 NW5       30.26R
RHINELANDER    CLOUDY    32  25  75 NW6       30.26S
PHILLIPS       CLOUDY    32  25  76 CALM      30.27S
ANTIGO         CLOUDY    33  28  83 NW7       30.27R
TOMAHAWK       CLOUDY    32  26  78 CALM      30.28R
MERRILL        CLOUDY    33  27  79 CALM      30.28S
$$

WIZ013-073-180400-
NORTHEAST WISCONSIN

CITY           SKY/WX    TMP DP  RH WIND       PRES   REMARKS
IRON MOUNTAIN  CLOUDY    36  28  73 W7        30.24R
MARINETTE      MOCLDY    37  32  81 SW3       30.25S
OCONTO         MOCLDY    39  33  78 CALM      30.26S
$$

WIZ017-030-035>037-045-180400-
CENTRAL WISCONSIN

CITY           SKY/WX    TMP DP  RH WIND       PRES   REMARKS
MEDFORD        CLOUDY    32  27  80 NW6       30.28S
WAUSAU         CLOUDY    35  27  72 NW8       30.27R
MOSINEE        CLOUDY    34  30  86 NW5       30.29R
MARSHFIELD     CLOUDY    35  27  72 N9        30.28R
WISC RAPIDS    CLOUDY    38  30  73 NW6       30.30R
STEVENS POINT  CLOUDY    35  27  74 NW6       30.29S
WAUPACA        CLOUDY    39  30  70 NW8       30.29R
SHAWANO        CLOUDY    41  33  74 NW7       30.28R
CLINTONVILLE   CLOUDY    39  32  75 NW9       30.27S
$$

WIZ038-039-048-051-180400-
FOX VALLEY

CITY           SKY/WX    TMP DP  RH WIND       PRES   REMARKS
NWS GREEN BAY  PTCLDY    39  33  79 W5        30.27R
APPLETON       PTCLDY    36  30  80 NW7       30.27R
OSHKOSH        PTCLDY    38  31  76 NW5       30.27R
FOND DU LAC    PTCLDY    39  33  79 NW6       30.27R
$$

WIZ022-050-052-180400-
EAST CENTRAL WISCONSIN

CITY           SKY/WX    TMP DP  RH WIND       PRES   REMARKS
STURGEON BAY   CLOUDY    37  32  81 CALM      30.26S
MANITOWOC      CLOUDY    44  37  76 NE3       30.26R
SHEBOYGAN      CLOUDY    45  36  70 N7        30.26R
$$

LMZ563-521-522-541>543-180400-
LAKESHORE

STATION/POSITION TIME  TEMP    WIND        PRES    VSBY  WAVE
                       AIR SEA DIR/SP/G                  HT/PER
                 (UTC) (F)     (DEG/KT/KT) (MB)    (MI)  (FT/S)
SHEBOYGAN LKSHOR 0300   43     340/  8/ 10 1025.3R
KEWAUNEE LKSHORE 0300   40      20/  5/  6 1025.0F
NORTHPORT PIER   0300   37      CALM  /  2 1024.4S
SISTER BAY LKSHO 0300   39        CALM       N/A
MENOMINEE LKSHOR 0300   37     170/  2/  3 1025.1R
$$



USA.gov is the U.S. government's official web portal to all federal, state and local government web resources and services.